Regional Weather Roundup
Issued by NWS

Home | Current Version | Previous Version | Text Only | Print | Product List | Glossary On
Versions: 1 2 3 4 5 6 7 8 9 10 11 12 13 14 15 16 17 18 19 20 21 22 23 24 25 26 27 28 29 30 31 32 33 34 35 36 37 38 39 40 41 42 43 44 45 46 47 48 49 50
583
ASUS43 KLSX 121707
RWRMO

WEATHER SUMMARY FOR MISSOURI
NATIONAL WEATHER SERVICE SPRINGFIELD MO
1200 PM CDT MON APR 12 2021

NOTE: "FAIR" INDICATES FEW OR NO CLOUDS BELOW 12,000 FEET WITH NO
       SIGNIFICANT WEATHER AND/OR OBSTRUCTIONS TO VISIBILITY.
       CURRENT SKY AND/OR WEATHER CONDITIONS ARE NOT AVAILABLE FOR
       CHILLICOTHE AND FARMINGTON.

MOZ001>031-035>038-043-044-053-054-121800-
...NORTHERN AND WESTERN MISSOURI...

CITY           SKY/WX    TMP DP  RH WIND       PRES   REMARKS
KANSAS CTY INT CLOUDY    55  36  48 N12G23    30.04R
KANSAS C DTWN  CLOUDY    52  33  48 NW10      30.04R
LEE`S SUMMIT   PTSUNNY   50  34  54 NW13      30.04S
ST JOSEPH      CLOUDY    53  30  41 NW12      30.04S
CHILLICOTHE      N/A     53  35  50 W9        30.02R
KIRKSVILLE     MOSUNNY   55  36  48 W15G23    29.98R

$$
MOZ066>068-077>081-088>096-101>105-121800-
...SOUTHWEST MISSOURI...

CITY           SKY/WX    TMP DP  RH WIND       PRES   REMARKS
SPRINGFIELD    MOSUNNY   61  40  45 N9        29.98R
JOPLIN         PTSUNNY   58  37  45 N8        30.01R
BRANSON        SUNNY     68  43  40 N9        29.97S

$$
MOZ032>034-039>042-045>050-055>058-069>072-121800-
...CENTRAL MISSOURI...

CITY           SKY/WX    TMP DP  RH WIND       PRES   REMARKS
COLUMBIA       SUNNY     60  38  43 NW9       29.98R
JEFFERSON CITY MOSUNNY   60  34  37 VRB7      29.98S
ROLLA          SUNNY     61  41  47 MISG      29.97F
SEDALIA        MOSUNNY   55  41  59 N14       30.02R
WHITEMAN AFB   PTSUNNY   56  39  53 NW14G24   29.98R
WARRENSBURG    MOSUNNY   54  36  50 NW10G17   30.02S
OSAGE BEACH    CLOUDY    61  33  35 NW9       30.00S

$$
MOZ051-052-059>065-121800-
...EAST CENTRAL MISSOURI...

CITY           SKY/WX    TMP DP  RH WIND       PRES   REMARKS
ST LOUIS INTL  MOSUNNY   63  45  51 NW15G21   29.94S
SPIRIT OF STL  SUNNY     64  44  48 NW14G21   29.93F
ST CHARLES     SUNNY     61  43  51 NW10      29.94R

$$
MOZ072>076-082>087-097>100-106>115-121800-
...SOUTH CENTRAL AND SOUTHEAST MISSOURI...

CITY           SKY/WX    TMP DP  RH WIND       PRES   REMARKS
CAPE GIRARDEAU SUNNY     70  42  36 NW8       29.93R
FARMINGTON     SUNNY     66  43  43 N8        29.94S
POPLAR BLUFF   SUNNY     71  43  36 SE7       29.91F
WEST PLAINS    PTSUNNY   67  43  41 NE5       29.95S

$$




USA.gov is the U.S. government's official web portal to all federal, state and local government web resources and services.